User: anonymous   Login
Location: Caltech
(34.1382°N, 118.1253°W)
Time: 00:21:01
(UTC-07:00)
Language:

Cosmos 2251 Rocket - Orbit

View from above orbital plane
View from above orbital plane
View from above satellite
View from above satellite

Ground track
Ground track

The orbit data is extracted from the following two-line orbital elements,

1 22676U 93036B   16241.87053001 +.00000043 +00000-0 +24775-4 0  9998
2 22676 074.0445 356.4694 0017857 094.9789 265.3402 14.33886478213167
Epoch (UTC): 28 August 2016 20:53:33
Eccentricity: 0.0017857
inclination: 74.0445°
perigee height: 766 km
apogee height: 791 km
right ascension of ascending node: 356.4694°
argument of perigee: 94.9789°
revolutions per day: 14.33886478
mean anomaly at epoch: 265.3402°
orbit number at epoch: 21316

The dashed part of the orbit path shows where the satellite is in the earth's shadow,  

DLR